Location: Holyhead Bay
(53.3667°N, 4.6667°W)
Time: 17:51:39
(UTC+00:00)

Cosmos 1943 Rocket - Pass Details

Date: 24 November 2020
Orbit: 811 x 844 km, 71.0° (Epoch: 16 January)

Event Time Altitude Azimuth Distance (km) Brightness Sun altitude
Rises 20:04:37 0° 322° (NW) 3,356 5.9 -34.1°
Reaches altitude 10° 20:07:22 10° 311° (NW) 2,423 5.2 -34.6°
Maximum altitude 20:11:55 27° 255° (WSW) 1,545 4.0 -35.2°
Enters shadow 20:13:25 24° 230° (SW) 1,664 4.0 -35.4°
